Hourly Data Report for October 15, 2016

All times are specified in Local Standard Time (LST). Add 1 hour to adjust for Daylight Saving Time where and when it is observed.

POND INLET A
NUNAVUT

72°41'22.000" N
77°58'08.000" W
61.60 m
2403206
71095
YIO

Download Data

Hourly Data (October 2016)
Hourly Data Report for October 15, 2016
Temp Definition
°C
Dew Point Temp Definition
°C
Rel Hum Definition
%
Wind Dir Definition
10's deg

Wind Spd Definition
km/h
Visibility Definition
km
Stn Press Definition
kPa
Hmdx Definition


Wind Chill Definition


Weather Definition


TIME
00:00 Legend Double Dagger -7.5 -11.5 73 LegendMM 4 16.1 99.97   -10 LegendNANA
01:00 Legend Double Dagger -7.4 -11.8 71 21 5 16.1 99.93   -10 LegendNANA
02:00 Legend Double Dagger -8.3 -12.0 75 15 13 16.1 99.88   -14 LegendNANA
03:00 Legend Double Dagger -5.8 -10.6 69 17 9 16.1 99.85   -10 LegendNANA
04:00 Legend Double Dagger -6.6 -11.0 71 LegendMM 4 16.1 99.82   -9 LegendNANA
05:00 Legend Double Dagger -8.7 -11.7 79 18 8 16.1 99.79   -13 LegendNANA
06:00 Legend Double Dagger -6.7 -9.9 78 22 8 16.1 99.78   -11 LegendNANA
07:00 Legend Double Dagger -7.2 -10.7 76 18 5 16.1 99.78   -10 LegendNANA
08:00 Legend Double Dagger -9.0 -11.4 83 17 13 16.1 99.78   -15 LegendNANA
09:00 Legend Double Dagger -8.8 -11.5 81 16 9 16.1 99.76   -13 LegendNANA
10:00 Legend Double Dagger -7.2 -10.3 79 15 9 16.1 99.78   -12 LegendNANA
11:00 Legend Double Dagger -9.3 -12.0 81 14 11 16.1 99.78   -15 LegendNANA
12:00 Legend Double Dagger -7.3 -9.7 83 16 9 16.1 99.79   -12 LegendNANA
13:00 Legend Double Dagger -6.9 -9.0 85 17 5 6.4 99.80   -9 Fog
14:00 Legend Double Dagger -7.3 -10.1 80 14 13 16.1 99.81   -13 LegendNANA
15:00 Legend Double Dagger -8.3 -10.9 82 14 15 16.1 99.84   -15 LegendNANA
16:00 Legend Double Dagger -8.6 -11.1 82 13 9 16.1 99.86   -13 LegendNANA
17:00 Legend Double Dagger -7.4 -10.3 80 7 4 16.1 99.89   -9 LegendNANA
18:00 Legend Double Dagger -6.5 -9.6 79 2 4 16.1 99.91   -8 Snow
19:00 Legend Double Dagger -7.2 -9.2 86   0 16.1 99.94     LegendNANA
20:00 Legend Double Dagger -7.2 -9.5 84 13 4 16.1 99.95   -9 Snow
21:00 Legend Double Dagger -7.2 -9.3 85 14 4 16.1 99.98   -9 Snow
22:00 Legend Double Dagger -7.4 -9.4 86 13 4 16.1 100.02   -9 Snow
23:00 Legend Double Dagger -6.8 -8.9 85 14 13 16.1 100.05   -12 LegendNANA

Notes on Data Quality.

Legend

  • E = Estimated
  • M = Missing
  • NA = Not Available
  • ‡ = Partner data that is not subject to review by the National Climate Archives
Date modified: